Regional Weather Roundup
Issued by NWS Northern Indiana

Home | Current Version | Previous Version | Text Only | Print | Product List | Glossary Off
Versions: 1 2 3 4 5 6 7 8 9 10 11 12 13 14 15 16 17 18 19 20 21 22 23 24 25 26 27 28 29 30 31 32 33 34 35 36 37 38 39 40 41 42 43 44 45 46 47 48 49 50

000
ASUS43 KIWX 211510
RWRIWX

KIWX WEATHER ROUNDUP
NATIONAL WEATHER SERVICE NORTHERN INDIANA
1100 AM EDT TUE OCT 21 2014

NOTE: "FAIR" INDICATES FEW OR NO CLOUDS BELOW 12,000 FEET WITH NO
SIGNIFICANT WEATHER AND/OR OBSTRUCTIONS TO VISIBILITY.

* THESE STATIONS ARE NOT UNDER NWS QUALITY CONTROL. THEY ALSO MAY NOT
  REPORT WEATHER SUCH AS PRECIPITATION OR FOG.

INZ001>027-211600-
NORTHERN INDIANA

CITY           SKY/WX    TMP DP  RH WIND       PRES   REMARKS
GARY*          PTSUNNY   54  45  71 N14G30    30.13R
VALPARAISO     CLOUDY    50  43  77 N13G21    30.12R
MICHIGAN CITY* CLOUDY    50  45  81 N15G22    30.11R
LAPORTE*       LGT RAIN  51  49  95 N9G16     30.11R
KNOX*          CLOUDY    49  44  83 N9        30.10S
SOUTH BEND     CLOUDY    50  44  80 N10       30.10R
ELKHART*       CLOUDY    48  43  81 N6        30.09R
GOSHEN         CLOUDY    49  43  80 N10       30.08R
MONTICELLO*    CLOUDY    52  45  76 N12       30.10R
LOGANSPORT*    CLOUDY    50  41  71 N13G20    30.10R
ROCHESTER*     CLOUDY    52  45  76 N13       30.09R
WARSAW*        CLOUDY    46  41  81 N6        30.08R
ANGOLA*        CLOUDY    46  34  61 N8        30.06R
FORT WAYNE     PTSUNNY   48  42  80 NW12      30.07R
HUNTINGTON*    CLOUDY    48  42  77 N8        30.07R
PERU/GRISSOM   CLOUDY    52  47  83 N17       30.08R
MARION*        CLOUDY    50  41  73 NW9       30.08S

$$
INZ028>050-211600-
CENTRAL INDIANA

CITY           SKY/WX    TMP DP  RH WIND       PRES   REMARKS
LAFAYETTE      CLOUDY    50  45  83 N17       30.11R
KOKOMO*        CLOUDY    52 N/A N/A N14       30.09R
MUNCIE*        CLOUDY    52  43  71 N14       30.06R
INDIANAPOLIS   PTSUNNY   48  44  86 NW12      30.09R

$$
MIZ043>046-050>051-056>058-064>065-071>073-077>080-211600-
SOUTHWEST LOWER MICHIGAN

CITY           SKY/WX    TMP DP  RH WIND       PRES   REMARKS
BATTLE CREEK   CLOUDY    48  43  82 N13       30.08R
BENTON HARBOR  CLOUDY    49  45  86 VRB5      30.10R
COLDWATER*     CLOUDY    48  45  90 N7        30.06R
HILLSDALE*     CLOUDY    47  44  88 N10G18    30.04R
HOLLAND        PTSUNNY   52  41  66 N10G18    30.11R
GRAND RAPIDS   CLOUDY    49  41  74 N10G20    30.10R
KALAMAZOO      CLOUDY    48  45  87 N10       30.09R FOG
STURGIS*       CLOUDY    46  45  93 N6        30.07R
THREE RIVERS*  CLOUDY    48  45  87 N6        30.08R

$$
OHZ001>008-015>018-024>025-211600-
NORTHWEST OHIO

CITY           SKY/WX    TMP DP  RH WIND       PRES   REMARKS
WAUSEON*       DRIZZLE   48  45  87 N13       30.03R
DEFIANCE       CLOUDY    50  44  80 N12       30.04R
FINDLAY        CLOUDY    49  45  86 NW10      30.00R
TOLEDO EXPRESS CLOUDY    49  44  83 N10       30.02R
TOLEDO METCALF CLOUDY    50  43  77 N13G18    30.01R
LIMA           CLOUDY    50  44  80 NW10G20   30.01R

$$
AND FOR LAKE MICHIGAN COASTAL AND OPEN LAKE BUOY OBSERVATIONS

STATION/POSITION TEMP    WIND        PRES    VSBY  WAVE
                 AIR SEA DIR/SP/G                  HT/PER
                 (F)     (DEG/KT/KT) (MB)    (MI)  (FT/S)
CALUMET HARBOR    50     320/  7/ 15 1019.2S
MICHIGAN CITY     50     330/ 21/ 23   N/A
SAINT JOSEPH      51                 1020.3R
SOUTH LAKE BUOY   51 54   10/ 19/ 23 1020.1R         6/ 7
SAINT JOSEPH CG                      1018.8      6   3

$$
&&



USA.gov is the U.S. government's official web portal to all federal, state and local government web resources and services.